Kimball, NE

1:42 AM MDT on June 28, 2017 (GMT -0600)
Kimball Municipal-Arraj

Weather History for KIBM - March, 2012

Change the Weather History Date:

Saturday, March 17, 2012

  Actual Average (KSNY) Record (KSNY)
Temperature  
Mean Temperature 53 °F -  
Max Temperature 75 °F 52 °F 81 °F (2012)
Min Temperature 31 °F 22 °F -1 °F (1965)
Degree Days  
Heating Degree Days 12    
Growing Degree Days 3 (Base 50)    
Moisture  
Dew Point 17 °F    
Average Humidity 33    
Maximum Humidity 65    
Minimum Humidity 9    
Precipitation  
Precipitation 0.00 in - - ()
Sea Level Pressure  
Sea Level Pressure 29.70 in    
Wind  
Wind Speed 9 mph (SW)    
Max Wind Speed 23 mph    
Max Gust Speed 32 mph    
Visibility 10 miles    
Events      
Averages and records for this station are not official NWS values.
T = Trace of Precipitation, MM = Missing Value Source: NWS Daily Summary

Daily Weather History Graph

Daily Weather History Graph

Search for Another Location

Airport or City:

Trip Planner

Search our weather history database for the weather conditions in past years. The results will help you decide how hot, cold, wet, or windy it might be!

Date:

Astronomy

Mar. 17, 2012 Rise Set
Actual Time 8:02 AM CDT 8:04 PM CDT
Civil Twilight 7:34 AM CDT 8:31 PM CDT
Nautical Twilight 7:02 AM CDT 9:03 PM CDT
Astronomical Twilight 6:30 AM CDT 9:36 PM CDT
Moon 5:07 AM CDT (3/17) 3:28 PM CDT (3/17)
Length of Visible Light 12h 56m
Length of Day
12h 02m
Waning Crescent, 23% of the Moon is Illuminated
Mar 17
Waning Crescent
Mar 22
New
Mar 30
First Quarter
Apr 6
Full
Apr 13
Last Quarter

Hourly Weather History & Observations

Time (CDT) Temp. Windchill Dew Point Humidity Pressure Visibility Wind Dir Wind Speed Gust Speed Precip Events Conditions
12:15 AM 41.2 °F 35.0 °F 18.7 °F 40% 29.77 in 10.0 mi WNW 10.4 mph - N/A   Clear
12:35 AM 41.0 °F 34.3 °F 18.7 °F 41% 29.76 in 10.0 mi WNW 11.5 mph - N/A   Clear
12:55 AM 40.8 °F 35.6 °F 18.7 °F 41% 29.77 in 10.0 mi WNW 8.1 mph - N/A   Clear
1:15 AM 39.2 °F 37.0 °F 18.3 °F 43% 29.76 in 10.0 mi SW 3.5 mph - N/A   Clear
1:35 AM 37.6 °F 35.1 °F 17.6 °F 44% 29.76 in 10.0 mi West 3.5 mph - N/A   Clear
1:55 AM 32.5 °F - 18.3 °F 56% 29.76 in 10.0 mi Calm Calm - N/A   Clear
2:15 AM 37.8 °F - 17.8 °F 44% 29.75 in 10.0 mi Calm Calm - N/A   Clear
2:35 AM 35.1 °F 31.0 °F 18.3 °F 51% 29.75 in 10.0 mi WNW 4.6 mph - N/A   Clear
2:55 AM 33.8 °F 28.6 °F 19.2 °F 55% 29.75 in 10.0 mi West 5.8 mph - N/A   Clear
3:15 AM 35.4 °F 28.4 °F 20.1 °F 54% 29.75 in 10.0 mi WNW 9.2 mph - N/A   Clear
3:35 AM 34.7 °F 28.8 °F 19.9 °F 55% 29.75 in 10.0 mi West 6.9 mph - N/A   Clear
3:55 AM 33.6 °F 26.2 °F 19.8 °F 57% 29.75 in 10.0 mi West 9.2 mph - N/A   Clear
4:15 AM 37.4 °F 30.8 °F 20.1 °F 50% 29.74 in 10.0 mi West 9.2 mph - N/A   Clear
4:35 AM 34.3 °F 29.2 °F 19.4 °F 54% 29.74 in 10.0 mi West 5.8 mph - N/A   Clear
4:55 AM 35.2 °F 30.3 °F 18.9 °F 51% 29.74 in 10.0 mi WSW 5.8 mph - N/A   Clear
5:15 AM 34.0 °F 27.2 °F 19.2 °F 55% 29.74 in 10.0 mi West 8.1 mph - N/A   Clear
5:35 AM 34.0 °F 25.5 °F 19.4 °F 55% 29.74 in 10.0 mi WNW 11.5 mph - N/A   Clear
5:55 AM 33.1 °F 26.1 °F 19.4 °F 57% 29.74 in 10.0 mi West 8.1 mph - N/A   Clear
6:15 AM 34.3 °F 27.0 °F 18.7 °F 53% 29.74 in 10.0 mi West 9.2 mph - N/A   Clear
6:35 AM 32.2 °F 24.4 °F 19.2 °F 59% 29.74 in 10.0 mi WNW 9.2 mph - N/A   Clear
6:55 AM 32.7 °F 26.4 °F 20.1 °F 60% 29.74 in 10.0 mi West 6.9 mph - N/A   Clear
7:15 AM 32.0 °F 24.2 °F 20.1 °F 62% 29.75 in 10.0 mi West 9.2 mph - N/A   Clear
7:35 AM 32.0 °F 25.6 °F 19.4 °F 60% 29.75 in 10.0 mi West 6.9 mph - N/A   Clear
7:55 AM 32.0 °F 26.4 °F 19.4 °F 60% 29.75 in 10.0 mi WNW 5.8 mph - N/A   Clear
8:15 AM 31.8 °F 25.4 °F 19.9 °F 62% 29.75 in 10.0 mi WNW 6.9 mph - N/A   Clear
8:35 AM 31.8 °F 27.3 °F 21.2 °F 65% 29.75 in 10.0 mi WNW 4.6 mph - N/A   Clear
8:55 AM 36.0 °F 30.3 °F 21.7 °F 56% 29.74 in 10.0 mi West 6.9 mph - N/A   Clear
9:15 AM 41.7 °F 37.3 °F 21.2 °F 44% 29.75 in 10.0 mi West 6.9 mph - N/A   Clear
9:35 AM 45.5 °F 41.8 °F 21.0 °F 38% 29.75 in 10.0 mi West 6.9 mph - N/A   Clear
9:55 AM 48.7 °F - 21.2 °F 34% 29.75 in 10.0 mi West 4.6 mph - N/A   Clear
10:15 AM 53.4 °F - 21.7 °F 29% 29.75 in 10.0 mi West 4.6 mph - N/A   Clear
10:35 AM 59.0 °F - 20.3 °F 22% 29.75 in 10.0 mi Calm Calm - N/A   Clear
10:55 AM 62.8 °F - 17.4 °F 17% 29.74 in 10.0 mi Calm Calm - N/A   Clear
11:15 AM 64.9 °F - 16.2 °F 15% 29.74 in 10.0 mi ESE 5.8 mph - N/A   Clear
11:35 AM 66.4 °F - 15.6 °F 14% 29.74 in 10.0 mi SE 8.1 mph - N/A   Clear
11:55 AM 68.0 °F - 16.2 °F 14% 29.73 in 10.0 mi ESE 11.5 mph - N/A   Clear
12:15 PM 69.4 °F - 15.8 °F 13% 29.72 in 10.0 mi East 10.4 mph - N/A   Clear
12:35 PM 70.7 °F - 17.2 °F 13% 29.71 in 10.0 mi SE 13.8 mph 18.4 mph N/A   Clear
12:55 PM 71.2 °F - 16.9 °F 13% 29.70 in 10.0 mi ESE 16.1 mph - N/A   Clear
1:15 PM 72.9 °F - 17.4 °F 12% 29.69 in 10.0 mi SE 15.0 mph 25.3 mph N/A   Clear
1:35 PM 72.7 °F - 16.9 °F 12% 29.68 in 10.0 mi SE 16.1 mph 28.8 mph N/A   Clear
1:55 PM 72.7 °F - 16.7 °F 12% 29.67 in 10.0 mi SE 18.4 mph 26.5 mph N/A   Clear
2:15 PM 73.4 °F - 16.9 °F 12% 29.67 in 10.0 mi SE 17.3 mph 27.6 mph N/A   Clear
2:35 PM 73.4 °F - 17.2 °F 12% 29.66 in 10.0 mi SE 23.0 mph 32.2 mph N/A   Clear
2:55 PM 73.8 °F - 16.5 °F 11% 29.64 in 10.0 mi SSE 21.9 mph 27.6 mph N/A   Clear
3:15 PM 74.3 °F - 16.5 °F 11% 29.63 in 10.0 mi SSE 18.4 mph 27.6 mph N/A   Clear
3:35 PM 74.5 °F - 13.5 °F 10% 29.61 in 10.0 mi South 21.9 mph 27.6 mph N/A   Clear
3:55 PM 74.8 °F - 11.8 °F 9% 29.60 in 10.0 mi SSE 16.1 mph 27.6 mph N/A   Clear
4:15 PM 75.0 °F - 12.7 °F 9% 29.59 in 10.0 mi SSE 17.3 mph 32.2 mph N/A   Clear
4:35 PM 74.5 °F - 12.7 °F 9% 29.59 in 10.0 mi SSE 16.1 mph - N/A   Clear
4:55 PM 75.7 °F - 13.5 °F 9% 29.58 in 10.0 mi South 15.0 mph 21.9 mph N/A   Clear
5:15 PM 74.8 °F - 12.7 °F 9% 29.57 in 10.0 mi SSE 15.0 mph 19.6 mph N/A   Clear
5:35 PM 73.6 °F - 11.1 °F 9% 29.57 in 10.0 mi South 20.7 mph - N/A   Clear
5:55 PM 73.2 °F - 10.8 °F 9% 29.56 in 10.0 mi South 13.8 mph - N/A   Clear
6:15 PM 74.5 °F - 11.5 °F 9% 29.56 in 10.0 mi South 12.7 mph 21.9 mph N/A   Clear
6:35 PM 72.9 °F - 11.5 °F 9% 29.56 in 10.0 mi South 17.3 mph 31.1 mph N/A   Clear
6:55 PM 70.3 °F - 11.5 °F 10% 29.56 in 10.0 mi South 12.7 mph 23.0 mph N/A   Clear
7:15 PM 69.8 °F - 11.8 °F 11% 29.56 in 10.0 mi South 15.0 mph - N/A   Clear
7:35 PM 68.9 °F - 10.9 °F 11% 29.56 in 10.0 mi South 15.0 mph - N/A   Clear
7:55 PM 64.9 °F - 10.0 °F 12% 29.56 in 10.0 mi South 9.2 mph - N/A   Clear
8:15 PM 58.1 °F - 8.6 °F 14% 29.56 in 10.0 mi South 8.1 mph - N/A   Clear
8:35 PM 56.3 °F - 8.2 °F 15% 29.56 in 10.0 mi South 6.9 mph - N/A   Clear
8:55 PM 52.2 °F - 8.4 °F 17% 29.56 in 10.0 mi South 4.6 mph - N/A   Clear
9:15 PM 49.3 °F - 8.2 °F 19% 29.56 in 10.0 mi SSE 9.2 mph - N/A   Clear
9:35 PM 47.3 °F - 7.7 °F 20% 29.56 in 10.0 mi South 6.9 mph - N/A   Clear
9:55 PM 46.0 °F 41.9 °F 7.3 °F 21% 29.56 in 10.0 mi South 8.1 mph - N/A   Clear
10:15 PM 46.6 °F - 7.3 °F 20% 29.56 in 10.0 mi South 9.2 mph - N/A   Clear
10:35 PM 45.0 °F 40.1 °F 7.3 °F 21% 29.56 in 10.0 mi SSE 9.2 mph - N/A   Clear
10:55 PM 43.5 °F 38.3 °F 7.2 °F 23% 29.56 in 10.0 mi South 9.2 mph - N/A   Clear
11:15 PM 42.1 °F 37.1 °F 7.5 °F 24% 29.55 in 10.0 mi South 8.1 mph - N/A   Clear
11:35 PM 43.9 °F 39.3 °F 7.3 °F 22% 29.54 in 10.0 mi South 8.1 mph - N/A   Clear
11:55 PM 43.0 °F 37.7 °F 7.7 °F 24% 29.54 in 10.0 mi South 9.2 mph - N/A   Clear